Retour au catalogue

CZ-6A DEB

ActifSSO
NORAD 54612·DEBRIS·🇨🇳 China

Lancé Nov 11, 2022 depuis Taiyuan Satellite Launch Center

Loading…

Prochains Passages (prochaines 24 heures)

TLE

FraisSource: Space-Track

Époque: Sep 14, 2026, 10:10 UTC

1 54612U 22151NN  26257.42383527  .00000546  00000-0  31761-3 0  9991
2 54612  98.8405 256.0216 0050869  96.0812 264.6159 14.12041398196967

Suivez CZ-6A DEB en temps réel avec AllMySat

Download on the App Store